Tracking 27107 objects as of 20-Mar-2023
HD Live streaming from Space Station
objects crossing your sky now

STARLINK-2368

Track STARLINK-2368 now!
10-day predictions
STARLINK-2368 is classified as:


NORAD ID: 47908
Int'l Code: 2021-021BA
Perigee: 553.3 km
Apogee: 555.4 km
Inclination: 53.1 °
Period: 95.6 minutes
Semi major axis: 6925 km
RCS: Unknown
Launch date: March 14, 2021
Source: United States (US)
Launch site: AIR FORCE EASTERN TEST RANGE (AFETR)
Your satellite tracking list
Your tracking list is empty




NASA's NSSDC Master Catalog

Two Line Element Set (TLE):
1 47908U 21021BA  23079.40271131  .00019157  00000-0  13015-2 0  9999
2 47908  53.0523 113.6600 0001485 101.5353 258.5803 15.06399331112466
Source of the keplerian elements: AFSPC